Solomon, AZ

11:29 PM MST on August 26, 2016 (GMT -0700)
Safford Regional

Weather History for KSAD - May, 2014

Change the Weather History Date:

Wednesday, May 7, 2014

  Actual Average Record
Temperature  
Mean Temperature 63 °F -  
Max Temperature 73 °F 82 °F 100 °F (1989)
Min Temperature 53 °F 47 °F 31 °F (1975)
Degree Days  
Heating Degree Days 2    
Growing Degree Days 13 (Base 50)    
Moisture  
Dew Point 25 °F    
Average Humidity 24    
Maximum Humidity 38    
Minimum Humidity 12    
Precipitation  
Precipitation 0.00 in - - ()
Sea Level Pressure  
Sea Level Pressure 29.70 in    
Wind  
Wind Speed 13 mph (NW)    
Max Wind Speed 24 mph    
Max Gust Speed 39 mph    
Visibility 10 miles    
Events      
Averages and records for this station are not official NWS values.
T = Trace of Precipitation, MM = Missing Value Source: NWS Daily Summary

Daily Weather History Graph

Daily Weather History Graph

Search for Another Location

Airport or City:

Trip Planner

Search our weather history database for the weather conditions in past years. The results will help you decide how hot, cold, wet, or windy it might be!

Date:

Astronomy

May. 07, 2014 Rise Set
Actual Time 5:25 AM MST 7:04 PM MST
Civil Twilight 4:59 AM MST 7:31 PM MST
Nautical Twilight 4:26 AM MST 8:03 PM MST
Astronomical Twilight 3:53 AM MST 8:37 PM MST
Moon 12:34 PM MST (5/7) 1:03 AM MST (5/7)
Length of Visible Light 14h 32m
Length of Day
13h 39m
First Quarter, 56% of the Moon is Illuminated
May 7
First Quarter
May 14
Full
May 21
Last Quarter
May 28
New
Jun 5
First Quarter

Hourly Weather History & Observations

Time (MST) Temp. Dew Point Humidity Pressure Visibility Wind Dir Wind Speed Gust Speed Precip Events Conditions
12:51 AM 64.9 °F 28.9 °F 26% 29.59 in 10.0 mi WNW 13.8 mph - N/A   Clear
1:51 AM 62.1 °F 30.0 °F 30% 29.60 in 10.0 mi NW 15.0 mph - N/A   Clear
2:51 AM 61.0 °F 30.9 °F 32% 29.60 in 10.0 mi NW 16.1 mph - N/A   Clear
3:51 AM 60.1 °F 30.0 °F 32% 29.61 in 10.0 mi NW 10.4 mph - N/A   Clear
4:51 AM 55.0 °F 28.9 °F 37% 29.63 in 10.0 mi South 3.5 mph - N/A   Clear
5:51 AM 53.1 °F 28.0 °F 38% 29.66 in 10.0 mi Calm Calm - N/A   Clear
6:51 AM 57.0 °F 28.0 °F 33% 29.67 in 10.0 mi East 4.6 mph - N/A   Clear
7:51 AM 61.0 °F 28.9 °F 30% 29.68 in 10.0 mi Calm Calm - N/A   Clear
8:51 AM 66.9 °F 30.0 °F 25% 29.68 in 10.0 mi NW 13.8 mph 21.9 mph N/A   Clear
9:51 AM 68.0 °F 28.0 °F 22% 29.70 in 10.0 mi West 10.4 mph - N/A   Clear
10:35 AM 71.1 °F 30.0 °F 22% 29.82 in 10.0 mi NNW 12.7 mph 26.5 mph N/A   Partly Cloudy
10:51 AM 71.1 °F 28.9 °F 21% 29.70 in 10.0 mi NW 16.1 mph 25.3 mph N/A   Partly Cloudy
11:51 AM 73.0 °F 25.0 °F 17% 29.69 in 10.0 mi North 8.1 mph 18.4 mph 0.00 in   Partly Cloudy
12:51 PM 73.9 °F 17.1 °F 12% 29.70 in 10.0 mi WNW 19.6 mph 39.1 mph N/A   Partly Cloudy
1:51 PM 73.0 °F 24.1 °F 16% 29.71 in 10.0 mi NW 17.3 mph 26.5 mph N/A   Partly Cloudy
2:51 PM 73.9 °F 21.9 °F 14% 29.70 in 10.0 mi WNW 24.2 mph 33.4 mph N/A   Clear
3:51 PM 73.0 °F 19.0 °F 13% 29.70 in 10.0 mi NW 20.7 mph 33.4 mph N/A   Clear
4:51 PM 72.0 °F 19.9 °F 14% 29.70 in 10.0 mi NW 20.7 mph 31.1 mph N/A   Clear
5:51 PM 70.0 °F 15.1 °F 12% 29.73 in 10.0 mi NW 24.2 mph 29.9 mph N/A   Clear
6:51 PM 66.9 °F 15.1 °F 14% 29.75 in 10.0 mi NW 20.7 mph 28.8 mph N/A   Clear
7:51 PM 64.0 °F 23.0 °F 21% 29.77 in 10.0 mi NW 16.1 mph 26.5 mph N/A   Clear
8:51 PM 62.1 °F 25.0 °F 24% 29.78 in 10.0 mi NW 18.4 mph - N/A   Clear
9:51 PM 61.0 °F 26.1 °F 26% 29.81 in 10.0 mi NW 15.0 mph - N/A   Clear
10:51 PM 57.9 °F 26.1 °F 30% 29.80 in 10.0 mi WNW 11.5 mph - N/A   Clear
11:51 PM 55.9 °F 26.1 °F 32% 29.82 in 10.0 mi West 10.4 mph - N/A   Clear